Location: Équennes
(49.7375°N, 1.9622°E)
Time: 22:25:58
(UTC+00:00)

COSMOS 2455 - Pass Details

Date: 28 January 2023
Orbit: 898 x 911 km, 67.1° (Epoch: 29 March)

Event Time Altitude Azimuth Distance (km) Brightness Sun altitude
Rises 20:01:36 0° 256° (WSW) 3,523 6.8 -32.4°
Reaches altitude 10° 20:04:28 10° 268° (W) 2,587 6.0 -32.9°
Maximum altitude 20:09:35 28° 326° (NNW) 1,629 4.5 -33.7°
Enters shadow 20:11:08 25° 352° (N) 1,741 4.4 -33.9°
